تهران, ایران

01:41 AM +0430 on آوریل 22, 2018 (GMT +0430)
Mehrabad International | | Change Station

Elev 3907 ft 35.68 °N, 51.35 °E | Updated 11 minutes ago

ابرهاى پراكنده
ابرهاى پراكنده
57 °F
Feels Like 57 °F
N
5
باد متغير باد from شمال

امروز
High -- | Low -- °F
--% Chance of Precip.
دیروز
High -- | Low -- °F
Precip. -- در
فشار 29.89 در
ديد 6.2 مايل، ميل (در برابر كيلومتر
ابری ابرهای پراکنده 2500 ft
ابرهای پراکنده 10000 ft
قطره شبنم 45 °F
رطوبت 63%
بارش باران 0.00 در
برف عمیق Not available.
6:19 AM 7:40 PM
Waxing Crescent, 38% visible
METAR OIII 212100Z 01004KT 9999 SCT025 SCT100 14/07 Q1012 A2989 NOSIG
فشار 29.89 در
ديد 6.2 مايل، ميل (در برابر كيلومتر
ابری ابرهای پراکنده 2500 ft
ابرهای پراکنده 10000 ft
قطره شبنم 45 °F
رطوبت 63%
بارش باران 0.00 در
برف عمیق Not available.
6:19 AM 7:40 PM
Waxing Crescent, 38% visible
METAR OIII 212100Z 01004KT 9999 SCT025 SCT100 14/07 Q1012 A2989 NOSIG

Get Severe Weather Alerts

Thanks for signing up!

Be on the lookout for a verification email in your inbox.

You'll start receiving the daily forecast at 6 AM.

×

10-Day Weather Forecast

No radar image for this location.
×

Almanac

ستاره شناسی

Apr. 22, 2018 Rise Set
وقت حقیقی
تاریک و روشن اجتماعی
تاریک روشن دریایی
شفق و فلق نجومی
ماه
میزان روشنایی روز
طول روز
Tomorrow will be .
, % of the Moon is Illuminated

Today's Extremes

Country Highs Country Lows

Community

WunderPhotos

Category 6

Welcome to Category 6. This is the collective home for Weather Underground's featured writeups by Dr. Jeff Masters (right), Bob Henson (left), Chris Burt, and other regular contributors.

Nearby

تمیزی هوا

  تمیزی هوا AQ Index آلاینده
Not available.

عمق برف

Station Depth Elevation

Earthquake Activity

شهر Distance Mag. Time & Date
Minimum magnitude displayed is 2.5.

Coastal Water Temperatures

منطقه درجه حرارت

Stations

Nearby Weather Stations

Station Location دما باد سرد قطره شبنم رطوبت باد Precip. Elev ارتقا دادن Type